www.pogodaiklimat.ru

Погода и климат >> Архив погоды >> Украина >> Павлоград


ПОГОДА в Павлограде

  • Прогноз погоды в Павлограде
  • Монитор погоды в Павлограде

АРХИВ ПОГОДЫ в Павлограде

Время (UTC), дата Ветер
(напр.,м/с)
 
Видим.   Явления Облачность Т
(С)
Тd
(С)
f
(%)
Тe
(С)
Тes
(С)
Комфортность P
(гПа)
Po
(гПа)
Тmin
(С)
Tmax
(С)
R
(мм)
R24
(мм)
S
(см)
09 17.06 В 4 21 км ясно +27.5 +9.9 33 +28 +40 жарко 1015.0 1004.6
12 17.06 СВ 2 22 км 3/3 1000 м
[Cu hum]
+29.5 +8.9 28 +29 +39 жарко 1014.2 1003.8
15 17.06 СВ 2 21 км 3/3 600 м
[Sc diur, vesp]
+29.4 +10.1 30 +29 +32 жарко 1013.5 1003.1
18 17.06 СВ 1 16 км 4/0
[Ac trans]
+24.8 +13.1 48 +27 +27 жарко 1014.3 1003.8 +30.4
21 17.06 штиль 0 10 км 3/0
[Ac trans]
+19.8 +12.3 62 +21 +21 комфорт 1014.8 1004.1
00 18.06 штиль 0 10 км ясно +16.4 +13.5 83 +16 +16 1015.4 1004.6
03 18.06 штиль 0 15 км ясно +16.4 +13.7 84 +16 +17 1015.5 1004.7
06 18.06 СЗ 1 16 км 1/0
[Ci fib]
+24.8 +14.9 54 +28 +38 жарко 1015.3 1004.8 +13.9
09 18.06 С 1 19 км 4/4 600 м
[Cu hum]
+29.8 +13.6 37 +31 +44 жарко 1014.7 1004.3
12 18.06 С 2 22 км 6/4 600 м
[Cu hum Ci fib]
+31.8 +13.8 34 +33 +41 жарко 1013.6 1003.3
15 18.06 С 2 22 км 4/4 600 м
[Cu hum]
+31.2 +14.5 36 +33 +35 жарко 1012.7 1002.4
18 18.06 штиль 0 17 км 3/0
[Ac trans]
+26.7 +16.5 54 +30 +30 душно 1012.6 1002.2 +32.2
21 18.06 штиль 0 10 км 3/0
[Ac trans]
+22.7 +17.2 71 +28 +28 душно 1013.5 1002.9
00 19.06 З 1 10 км ясно +20.4 +17.3 82 +25 +25 комфорт 1013.6 1002.9
03 19.06 штиль 0 14 км ясно +20.3 +17.7 85 +23 +25 комфорт 1013.1 1002.4
06 19.06 СВ 1 19 км ясно +27.4 +17.4 54 +31 +43 душно 1013.2 1002.8 +19.7
09 19.06 СВ 2 20 км 6/6 1000 м
[Cu med, cong]
+30.2 +15.2 40 +33 +40 душно 1013.0 1002.7
12 19.06 С 3 22 км 6/6 1000 м
[Cu med, cong]
+31.8 +13.6 33 +33 +38 жарко 1012.0 1001.7
15 19.06 С 2 23 км 3/3 1000 м
[Cu med, cong]
+31.7 +13.9 34 +33 +36 жарко 1011.4 1001.1
18 19.06 СВ 1 16 км 3/3 600 м
[Sc diur, vesp]
+27.0 +14.7 47 +30 +30 душно 1011.9 1001.5 +32.7
21 19.06 С 1 10 км 1/0
[Ac trans]
+22.7 +15.1 62 +27 +27 душно 1013.1 1002.5
00 20.06 штиль 0 10 км ясно +20.0 +14.7 72 +22 +22 комфорт 1013.5 1002.8
03 20.06 штиль 0 16 км ясно +20.2 +15.1 72 +22 +24 комфорт 1014.3 1003.6
06 20.06 В 2 19 км 3/0
[Ci fib]
+27.9 +15.7 47 +31 +40 душно 1013.9 1003.5 +18.4
09 20.06 В 5 21 км 8/8 1000 м
[Cu med, cong]
+31.6 +11.3 29 +32 +34 жарко 1013.3 1003.0
12 20.06 В 4 23 км 6/6 1000 м
[Cu med, cong]
+32.4 +10.1 25 +32 +36 жарко 1013.1 1002.8
15 20.06 В 4 22 км 4/4 1000 м
[Sc diur, vesp]
+31.8 +10.1 26 +31 +33 жарко 1012.6 1002.3
18 20.06 СВ 1 16 км 4/0
[Ci fib]
+25.4 +11.0 40 +26 +26 жарко 1013.3 1002.8 +33.7
21 20.06 В 1 10 км ясно +21.3 +12.0 55 +23 +23 комфорт 1014.1 1003.4
00 21.06 штиль 0 10 км ясно +18.5 +11.3 63 +19 +19 1014.8 1004.0
06 21.06 В 2 20 км 6/0
[Ci]
+28.1 +12.7 39 +30 +38 жарко 1015.8 1005.4 +16.7
12 21.06 В 4 22 км 3/3 1000 м
[Cu hum]
+33.5 +8.6 22 +32 +39 жарко 1014.6 1004.4
18 21.06 В 2 17 км 1/0
[Ac trans]
+27.2 +13.3 42 +29 +29 жарко 1014.1 1003.7 +34.7
00 22.06 штиль 0 10 км 3/0
[Ac trans]
+19.4 +12.6 65 +21 +21 комфорт 1015.7 1005.0
06 22.06 В 3 18 км 3/0
[Ac trans]
+30.8 +11.5 31 +31 +38 жарко 1015.8 1005.5 +18.5
12 22.06 В 3 23 км 8/4 1000 м
[Cu hum Ci]
+35.2 +8.8 20 +34 +40 очень
жарко
1015.1 1004.9
18 22.06 штиль 0 17 км 9/0
[Ac trans Cc]
+27.2 +14.5 46 +30 +30 душно 1015.0 1004.5 +35.7
00 23.06 ЮВ 2 10 км 9/0
[Ac trans]
+23.0 +13.3 54 +26 +26 жарко 1015.7 1005.1
06 23.06 СВ 2 17 км 9/0
[Ac As]
+28.5 +14.0 41 +30 +34 жарко 1014.7 1004.3 +22.1
12 23.06 СЗ 2 21 км 9/3 1000 м
[Sc Ac trans Ci fib]
+30.7 +13.5 35 +32 +38 жарко 1014.9 1004.6
18 23.06 С 1 16 км 9/9 600 м
[Cb cap]
+25.8 +15.6 53 +29 +29 душно 1013.7 1003.2 +31.9
00 24.06 З 1 10 км 10/10 600 м
[Cb cap]
+23.2 +15.9 64 +28 +28 душно 1014.3 1003.7
06 24.06 З 1 16 км слаб. ливневой дождь 10/10 600 м
[Cb cap]
+22.8 +16.2 66 +27 +27 душно 1014.5 1003.9 +22.1 0.3

 

Местоположение метеостанции Павлоград (Днепропетровская область, Украина): широта 48.53 долгота 35.83 высота над уровнем моря 91 м.

В архиве по умолчанию представлена погода в Павлограде за последнюю неделю. Архивные данные за месяц целиком и за предыдущие месяцы, начиная с января 2011 года, Вы можете получить, выбрав интересующий диапазон дат из раскрывающегося списка и нажав кнопку "Ввод!".


*Определитесь, кто Вы:
робот инопланетянин человек

Внимание! Время в таблицах - всемирное. Для получения местного времени необходимо прибавить поправку, которая равна 2 ч.

Смотрите также архив погоды в соседних городах и на ближайших метеорологических станциях:

Погода в Синельниково (Днепропетровская область, Украина) (28 км)
Погода в Губинихе (Днепропетровская область, Украина) (52 км)
Погода в Чаплино (Днепропетровская область, Украина) (53 км)
Погода в Александрополе (Днепропетровская область, Украина) (54 км)
Погода в Лозовой (Харьковская область, Украина) (55 км)
Погода в Днепре (Днепропетровская область, Украина) (64 км)
Погода в Краснограде (Харьковская область, Украина) (99 км)
Погода в Гуляйполе (Запорожская область, Украина) (101 км)
Погода в Запорожье (Запорожская область, Украина) (101 км)
Погода в Комсомольском (Донецкая область, Украина) (129 км)

Пояснения к столбцам:

Ветер - указаны скорость ветра в м/с - средняя за 10 мин, порывы в срок и между сроками (в фигурных скобках) и направление, откуда дует ветер: С - северный, СВ - северо-восточный, В - восточный, ЮВ - юго-восточный, Ю - южный, ЮЗ - юго-западный, З - западный, СЗ - северо-западный.
Видимость - горизонтальная дальность видимости в метрах или километрах. При видимости от 1 до 10 км при отсутствии осадков обычно наблюдается дымка, при ухудшении видимости до 1 км и менее - туман. В сухую погоду видимость может ухудшаться дымом, пылью или мглою.
Явления - указаны атмосферные явления, наблюдавшиеся в срок или в последний час перед сроком; фигурными скобками обозначены явления, наблюдавшиеся между сроками (за 1-3 часа до срока); квадратными скобками обозначены град или гололедные отложения с указанием их диаметра в мм.
Облачность - указаны через наклонную черту общая и нижняя облачность в баллах и высота нижней границы облаков в метрах; квадратными скобками обозначены формы облаков: Ci - перистые, Cs - перисто-слоистые, Cc - перисто-кучевые, Ac - высококучевые, As - высокослоистые, Sc - слоисто-кучевые, Ns - слоисто-дождевые, Cu - кучевые, Cb - кучево-дождевые. Подробнее классификацию облаков см. в Атласе облаков (PDF).
T - Температура воздуха - температура, измеренная на высоте 2 м над землей.
Td - Температура точки росы - температура, при понижении до которой содержащийся в воздухе водяной пар достигнет насыщения.
f - Относительная влажность воздуха - влажноcть воздуха, измеренная на высоте 2 м над землей.
Te - Эффективная температура - температура, которую ощущает одетый по сезону человек в тени. Характеристика душности погоды. При расчете учитывается влияние влажности воздуха и скорости ветра на теплоощущения человека.
Tes - Эффективная температура на солнце - температура, которую ощущает человек, с поправкой на солнечный нагрев. Характеристика знойности погоды. Зависит от высоты солнца над горизонтом, облачности и скорости ветра. Ночью, в пасмурную погоду, а также при ветре 12 м/с и более поправка равна нулю.
P - Атмосферное давление - приведенное к уровню моря атмосферное давление.
Po - Атмосферное давление - измеренное на уровне метеостанции атмосферное давление.
Tmin - Минимальная температура - минимум температуры воздуха на высоте 2 м над землей.
Tmax - Максимальная температура - максимум температуры воздуха на высоте 2 м над землей.
R - Количество осадков - Количество выпавших осадков за период времени, мм. При наведении курсора мыши на число - период времени, за который выпало указанное количество осадков.
R24 - Количество осадков - Количество выпавших осадков за 24 часа, мм.
S - Снежный покров - Высота снежного покрова, см. При наведении курсора мыши на число - состояние снежного покрова и степень покрытия местности в баллах.